TimeEST,TemperatureF,Dew PointF,Humidity,Sea Level PressureIn,VisibilityMPH,Wind Direction,Wind SpeedMPH,Gust SpeedMPH,PrecipitationIn,Events,Conditions,WindDirDegrees,DateUTC
12:14 AM,51.8,48.2,88,29.58,9.0,West,11.5,-,0.00,Rain,Light Rain,280,2014-01-03 05:14:00
12:25 AM,51.8,48.2,88,29.60,10.0,West,15.0,19.6,0.00,,Overcast,280,2014-01-03 05:25:00
12:54 AM,51.1,46.0,83,29.60,10.0,NW,18.4,28.8,0.00,,Overcast,310,2014-01-03 05:54:00
1:04 AM,51.8,44.6,76,29.61,10.0,NW,11.5,-,N/A,,Overcast,310,2014-01-03 06:04:00
1:54 AM,48.9,41.0,74,29.65,10.0,NW,16.1,31.1,0.00,Rain,Light Rain,310,2014-01-03 06:54:00
2:06 AM,48.2,42.8,82,29.66,10.0,WNW,11.5,20.7,0.00,Rain,Light Rain,300,2014-01-03 07:06:00
2:18 AM,48.2,39.2,71,29.67,10.0,NW,13.8,28.8,0.00,Rain,Light Rain,310,2014-01-03 07:18:00
2:54 AM,46.9,37.9,71,29.70,10.0,NW,11.5,23.0,0.00,,Mostly Cloudy,310,2014-01-03 07:54:00
3:54 AM,45.0,35.1,68,29.76,10.0,WNW,15.0,23.0,N/A,,Overcast,300,2014-01-03 08:54:00
4:54 AM,43.0,30.0,60,29.81,10.0,NW,24.2,32.2,N/A,,Overcast,310,2014-01-03 09:54:00
5:54 AM,39.0,26.1,60,29.89,10.0,NW,21.9,29.9,N/A,,Overcast,310,2014-01-03 10:54:00
6:54 AM,35.1,21.0,57,29.97,10.0,NW,20.7,28.8,N/A,,Mostly Cloudy,310,2014-01-03 11:54:00
7:54 AM,33.1,16.0,50,30.06,10.0,NW,18.4,31.1,N/A,,Overcast,310,2014-01-03 12:54:00
8:54 AM,32.0,15.1,50,30.12,10.0,NW,23.0,32.2,N/A,,Clear,320,2014-01-03 13:54:00
9:54 AM,33.1,15.1,48,30.17,10.0,NNW,20.7,28.8,N/A,,Clear,330,2014-01-03 14:54:00
10:54 AM,34.0,15.1,46,30.20,10.0,NNW,17.3,28.8,N/A,,Clear,340,2014-01-03 15:54:00
11:54 AM,36.0,15.1,43,30.21,10.0,NNW,17.3,26.5,N/A,,Clear,340,2014-01-03 16:54:00
12:54 PM,37.0,15.1,41,30.24,10.0,NNW,16.1,-,N/A,,Clear,340,2014-01-03 17:54:00
1:54 PM,37.9,14.0,38,30.27,10.0,North,15.0,21.9,N/A,,Clear,350,2014-01-03 18:54:00
2:54 PM,37.0,14.0,39,30.29,10.0,North,17.3,23.0,N/A,,Clear,360,2014-01-03 19:54:00
3:54 PM,36.0,12.9,39,30.32,10.0,North,13.8,-,N/A,,Clear,360,2014-01-03 20:54:00
4:54 PM,34.0,12.0,40,30.35,10.0,North,11.5,-,N/A,,Clear,360,2014-01-03 21:54:00
5:54 PM,33.1,12.9,43,30.39,10.0,North,6.9,-,N/A,,Clear,350,2014-01-03 22:54:00
6:54 PM,30.9,14.0,50,30.43,10.0,NNE,6.9,-,N/A,,Clear,20,2014-01-03 23:54:00
7:54 PM,30.9,10.9,43,30.46,10.0,NNE,8.1,-,N/A,,Clear,30,2014-01-04 00:54:00
8:54 PM,30.0,10.9,45,30.48,10.0,NNE,9.2,-,N/A,,Clear,20,2014-01-04 01:54:00
9:54 PM,28.9,10.9,47,30.48,10.0,NE,8.1,-,N/A,,Clear,40,2014-01-04 02:54:00
10:54 PM,28.9,12.9,51,30.49,10.0,ENE,6.9,-,N/A,,Clear,60,2014-01-04 03:54:00
11:54 PM,28.0,12.9,53,30.49,10.0,NE,6.9,-,N/A,,Clear,50,2014-01-04 04:54:00